Terminal Aerodrome Forecast
Issued by NWS

Home | Current Version | Previous Version | Text Only | Print | Product List | Glossary On
Versions: 1 2 3 4 5 6 7 8 9 10 11 12 13 14 15 16 17 18 19 20 21 22 23 24 25 26 27 28 29 30 31 32 33 34 35 36 37 38 39 40 41 42
000
FTAK31 PANC 290302 AAA
TAFASN
TAF AMD
PASN 290302Z 2903/2924 35020KT P6SM VCSH OVC005
     FM290900 36012KT P6SM -SHSN SCT008 OVC015=

USA.gov is the U.S. government's official web portal to all federal, state and local government web resources and services.